#timestamp,LO_Frequency,Hit,StdDev 
1455991215.0,286046989.0,N
1455991215.9,286046989.0,N
1455991235.8,286046991.3,N
1455991255.6,286046989.1,N
1455991275.4,286046991.4,N
1455991295.3,286046989.3,N
1455991315.1,286046985.9,N
1455991316.0,286046985.9,N
1455991335.8,286046986.0,N
1455991355.7,286046985.6,N
1455991375.5,286046989.9,N
1455991395.3,286046988.2,N
1455991415.2,286046987.5,N
1455991435.9,286046985.6,N
1455991455.7,286046985.3,N
1455991475.5,286046983.7,N
1455991495.4,286046986.6,N
1455991515.2,286046983.8,N
1455991535.0,286046987.2,N
1455991535.9,286046987.2,N
1455991555.8,286046988.7,N
1455991575.6,286046991.4,N
1455991595.4,286046990.2,N
1455991615.3,286046992.1,N
1455991635.1,286046992.1,N
1455991655.8,286046992.7,N
1455991675.7,286046990.9,Y
1455991695.5,286047000.4,P
1455991715.3,286047000.8,N
1455991735.2,286046999.7,N
1455991755.9,286047000.2,N
1455991775.7,286047001.0,N
1455991795.6,286047001.0,N
1455991815.4,286046998.8,N
1455991835.2,286046993.6,N
1455991855.1,286046990.2,N
1455991856.0,286046990.2,N
1455991875.8,286046989.1,N
1455991895.6,286046989.4,N
1455991915.4,286046990.3,N
1455991935.3,286046994.3,N
1455991955.1,286046992.1,N
1455991975.8,286046992.3,N
1455991995.7,286046990.6,N
1455992015.5,286046992.5,N
1455992035.3,286046993.1,N
1455992055.2,286046991.8,N
1455992075.9,286046992.0,N
1455992095.7,286046993.1,N
1455992115.6,286046990.8,N
1455992135.4,286046991.0,N
1455992155.2,286046994.2,N
1455992175.1,286046993.6,N
1455992176.0,286046993.6,N
1455992195.8,286046995.3,N
1455992215.6,286046994.9,N
1455992235.5,286046997.3,N
1455992255.3,286046997.2,N
1455992275.1,286046997.0,N
1455992295.8,286046997.4,N
1455992315.7,286046997.2,N
1455992335.5,286046996.2,N
1455992355.3,286046995.4,N
1455992375.2,286046997.2,N
1455992395.9,286046999.3,N
1455992415.7,286047000.9,N
1455992435.6,286046998.1,N
1455992455.4,286047002.2,N
1455992475.2,286047004.3,N
1455992495.1,286047005.4,N
1455992496.0,286047005.4,N
1455992515.8,286047005.7,N
1455992535.6,286047007.2,N
1455992555.5,286047003.8,N
1455992575.3,286047004.5,N
1455992595.1,286047005.0,N
1455992615.9,286047007.0,N
1455992635.7,286047008.1,N
1455992655.5,286047011.2,N
1455992675.4,286047018.2,Y
1455992695.2,286047021.7,P
1455992715.0,286047019.6,N
1455992715.9,286047019.6,N
1455992735.7,286047019.2,N
1455992755.6,286047016.4,N
1455992775.4,286047015.8,N
1455992795.2,286047020.1,N
1455992815.1,286047023.2,Y
1455992816.0,286047023.2,P
1455992835.8,286047005.9,N
1455992855.6,286047006.8,N
1455992875.5,286047005.8,N
1455992895.3,286047003.8,N
1455992915.1,286047001.5,N
1455992935.9,286047002.8,N
1455992955.7,286047001.4,N
1455992975.5,286047004.2,N
1455992995.4,286047002.7,N
1455993015.2,286047001.8,N
1455993035.0,286047001.5,N
1455993035.9,286047001.5,N
1455993055.8,286047005.8,N
1455993075.6,286047003.2,N
1455993095.4,286047003.2,N
1455993115.2,286047004.8,N
1455993135.1,286047003.9,N
1455993136.0,286047003.9,N
1455993155.8,286047003.8,N
1455993175.6,286047002.9,N
1455993195.5,286047005.8,N
1455993215.3,286047006.5,N
1455993235.1,286047008.6,N
1455993255.9,286047006.2,N
1455993275.7,286047007.4,N
1455993295.5,286047004.7,N
1455993315.4,286047003.0,N
1455993335.2,286047006.0,N
1455993355.0,286047001.3,N
1455993355.9,286047001.3,N
1455993375.8,286047001.3,N
1455993395.6,286047000.6,N
1455993415.4,286047000.1,N
1455993435.3,286047000.5,N
1455993455.1,286046998.8,N
1455993456.0,286046998.8,N
1455993475.8,286046998.3,N
1455993495.6,286047000.8,N
1455993515.5,286046996.5,N
1455993535.3,286046999.3,N
1455993555.1,286046998.1,N
1455993575.9,286046997.6,N
1455993595.7,286046997.5,N
1455993615.5,286046999.1,N
1455993635.4,286046999.6,N
1455993655.2,286046994.7,N
1455993675.0,286046995.6,N
1455993675.9,286046995.6,N
1455993695.8,286046992.4,N
1455993715.6,286046993.9,N
1455993735.4,286046996.0,N
1455993755.3,286046992.5,N
1455993775.1,286046991.2,N
1455993776.0,286046991.2,N
1455993795.8,286046987.0,Y
1455993815.7,286046987.6,P
1455993835.5,286046987.9,N
1455993855.3,286046985.7,N
1455993875.2,286046985.9,N
1455993895.9,286046990.0,N
1455993915.7,286046987.2,N
1455993935.5,286046987.9,N
1455993955.4,286046989.8,N
1455993975.2,286046987.6,Y
1455993995.0,286046999.5,P
1455993996.0,286046999.5,N
1455994015.8,286046999.1,N
1455994035.6,286046996.5,N
1455994055.4,286046997.9,N
1455994075.3,286046996.0,N
1455994095.1,286046992.1,N
1455994115.8,286046993.1,N
1455994135.7,286046990.0,N
1455994155.5,286046985.5,Y
1455994175.3,286046991.4,P
1455994195.2,286046990.6,P
1455994215.9,286046993.1,P
1455994235.7,286046993.6,Y
1455994255.6,286047002.3,P
1455994275.4,286047000.6,N
1455994295.2,286046998.9,N
1455994315.1,286046998.1,N
1455994316.0,286046998.1,N
1455994335.8,286047000.8,N
1455994355.6,286046998.2,N
1455994375.5,286046999.1,N
1455994395.3,286046998.8,N
1455994415.1,286046996.1,N
1455994435.9,286046996.0,N
1455994455.7,286046995.6,N
1455994475.5,286046995.2,N
1455994495.3,286046992.7,N
1455994515.2,286046988.6,Y
1455994535.0,286046990.1,P
1455994535.9,286046990.1,N
1455994555.7,286046992.7,N
1455994575.6,286046993.6,N
1455994595.4,286046993.5,N
1455994615.2,286046993.5,N
1455994635.1,286046995.0,N
1455994636.0,286046995.0,N
1455994655.8,286046993.3,Y
1455994675.6,286047002.1,P
1455994695.5,286047002.4,N
1455994715.3,286047002.7,N
1455994735.1,286047001.9,N
1455994755.9,286047002.8,N
1455994775.7,286046998.8,N
1455994795.5,286046997.8,N
